Regional Weather Roundup
Issued by NWS

Home | Current Version | Previous Version | Graphics & Text | Print | Product List | Glossary On
Versions: 1 2 3 4 5 6 7 8 9 10 11 12 13 14 15 16 17 18 19 20 21 22 23 24 25 26 27 28 29 30 31 32 33 34 35 36 37 38 39 40 41 42 43 44 45 46 47 48 49 50
000
ASUS43 KOAX 022102
RWRNE

WEATHER ROUNDUP FOR NEBRASKA
NATIONAL WEATHER SERVICE OMAHA NE
400 PM CDT MON MAY 02 2016

NOTES: SATELLITE DATA IS BEING USED TO AUGMENT CLOUD COVER ABOVE
       12000 FEET.
       "FAIR" INDICATES FEW OR NO CLOUDS BELOW 12,000 FEET WITH NO
       SIGNIFICANT WEATHER AND/OR OBSTRUCTIONS TO VISIBILITY.

  * THESE STATIONS DO NOT REPORT WEATHER SUCH AS RAIN...SNOW OR FOG.

NEZ001>004-019>022-054>056-022200-
NEBRASKA PANHANDLE

CITY           SKY/WX    TMP DP  RH WIND       PRES   REMARKS
SCOTTSBLUFF    SUNNY     62  31  31 W14G22    30.08F
ALLIANCE       SUNNY     62  30  29 NW15      30.05F
CHADRON        MOSUNNY   65  30  27 W9G20     30.04F
KIMBALL        SUNNY     56  25  30 NW9       30.13F
SIDNEY         SUNNY     59  27  29 NW14      30.12F
$$

NEZ057>060-069>072-079>082-022200-
SOUTHWEST NEBRASKA

CITY           SKY/WX    TMP DP  RH WIND       PRES   REMARKS
NORTH PLATTE   CLOUDY    61  33  35 W8        30.08F
IMPERIAL       MOSUNNY   60  30  32 N13       30.11F
LEXINGTON      MOSUNNY   59  35  39 CALM      30.08F
MCCOOK         SUNNY     62  35  36 VRB5      30.08F
$$

NEZ005>010-023>029-035>040-094-022200-
NORTH CENTRAL NEBRASKA

CITY           SKY/WX    TMP DP  RH WIND       PRES   REMARKS
VALENTINE      CLOUDY    61  30  31 NW6       30.04F
AINSWORTH      CLOUDY    59  33  36 W5        30.05F
BROKEN BOW     CLOUDY    59  32  36 CALM      30.07F
ORD            CLOUDY    59  37  44 S6        30.07F
$$

NEZ041-046>049-061>064-073>077-083>087-022200-
SOUTH CENTRAL NEBRASKA

CITY           SKY/WX    TMP DP  RH WIND       PRES   REMARKS
GRAND ISLAND   CLOUDY    59  35  40 CALM      30.10F
AURORA         CLOUDY    60  37  42 CALM      30.09F
HASTINGS       MOSUNNY   58  37  45 NE7       30.09F
KEARNEY *      MOSUNNY   57  34  41 NW7       30.10F
YORK           MOSUNNY   59  36  41 NW5       30.10F
$$

NEZ011>018-030>034-042>045-022200-
NORTHEAST NEBRASKA

CITY           SKY/WX    TMP DP  RH WIND       PRES   REMARKS
NORFOLK        MOSUNNY   62  35  36 W3        30.06F
ALBION         PTSUNNY   59  35  40 SW3       30.08F
BLAIR          CLOUDY    63  40  42 W6        30.07F
COLUMBUS *     CLOUDY    61  36  39 W7        30.09F
FREMONT        MOSUNNY   63  37  38 CALM      30.08F
TEKAMAH        SUNNY     64  39  39 CALM      30.07F
$$

NEZ050>053-065>068-078-088>093-022200-
SOUTHEAST NEBRASKA

CITY           SKY/WX    TMP DP  RH WIND       PRES   REMARKS
LINCOLN        PTSUNNY   63  35  35 VRB5      30.09F
OMAHA EPPLEY   PTSUNNY   62  39  42 CALM      30.07F
BEATRICE       MOSUNNY   62  38  42 CALM      30.08F
FALLS CITY     CLOUDY    60  44  55 CALM      30.07F
$$

NEZ044-045-051>053-067-022200-
OMAHA AREA

CITY           SKY/WX    TMP DP  RH WIND       PRES   REMARKS
OMAHA EPPLEY   PTSUNNY   62  39  42 CALM      30.07F
BLAIR          CLOUDY    63  40  42 W6        30.07F
FREMONT        MOSUNNY   63  37  38 CALM      30.08F
OFFUTT AFB     PTSUNNY   63  39  41 VRB3      30.06F
$$




USA.gov is the U.S. government's official web portal to all federal, state and local government web resources and services.